Thedford, NE

2:58 PM CDT on June 23, 2017 (GMT -0500)
Thedford

Weather History for KTIF - September, 2012

Change the Weather History Date:

Thursday, September 20, 2012

  Actual Average (KANW) Record (KANW)
Temperature  
Mean Temperature 58 °F -  
Max Temperature 81 °F 70 °F 93 °F (2005)
Min Temperature 36 °F 46 °F 37 °F (2006)
Degree Days  
Heating Degree Days 7    
Growing Degree Days 8 (Base 50)    
Moisture  
Dew Point 28 °F    
Average Humidity 42    
Maximum Humidity 68    
Minimum Humidity 15    
Precipitation  
Precipitation 0.00 in - - ()
Sea Level Pressure  
Sea Level Pressure 30.04 in    
Wind  
Wind Speed 3 mph (WNW)    
Max Wind Speed 16 mph    
Max Gust Speed 22 mph    
Visibility 10 miles    
Events      
Averages and records for this station are not official NWS values.
T = Trace of Precipitation, MM = Missing Value Source: NWS Daily Summary

Daily Weather History Graph

Daily Weather History Graph

Search for Another Location

Airport or City:

Trip Planner

Search our weather history database for the weather conditions in past years. The results will help you decide how hot, cold, wet, or windy it might be!

Date:

Astronomy

Sep. 20, 2012 Rise Set
Actual Time 7:28 AM CDT 7:42 PM CDT
Civil Twilight 7:00 AM CDT 8:09 PM CDT
Nautical Twilight 6:27 AM CDT 8:42 PM CDT
Astronomical Twilight 5:54 AM CDT 9:15 PM CDT
Moon 12:54 PM CDT (9/20) 10:39 PM CDT (9/20)
Length of Visible Light 13h 09m
Length of Day
12h 13m
Waxing Crescent, 27% of the Moon is Illuminated
Sep 20
Waxing Crescent
Sep 22
First Quarter
Sep 29
Full
Oct 8
Last Quarter
Oct 15
New

Hourly Weather History & Observations

Time (CDT) Temp. Windchill Dew Point Humidity Pressure Visibility Wind Dir Wind Speed Gust Speed Precip Events Conditions
12:15 AM 48.4 °F - 25.3 °F 41% 30.11 in 10.0 mi WNW 3.5 mph - N/A   Clear
12:35 AM 45.0 °F 43.5 °F 27.1 °F 50% 30.11 in 10.0 mi NW 3.5 mph - N/A   Clear
12:55 AM 44.1 °F - 27.9 °F 53% 30.11 in 10.0 mi Calm Calm - N/A   Clear
1:15 AM 44.4 °F - 27.5 °F 52% 30.11 in 10.0 mi Calm Calm - N/A   Clear
1:35 AM 43.9 °F - 26.4 °F 50% 30.11 in 10.0 mi Calm Calm - N/A   Clear
1:55 AM 41.9 °F 39.0 °F 26.8 °F 55% 30.11 in 10.0 mi West 4.6 mph - N/A   Clear
2:15 AM 42.8 °F 41.1 °F 26.4 °F 52% 30.12 in 10.0 mi West 3.5 mph - N/A   Clear
2:35 AM 41.4 °F 39.4 °F 26.8 °F 56% 30.12 in 10.0 mi West 3.5 mph - N/A   Clear
2:55 AM 40.5 °F 37.3 °F 26.4 °F 57% 30.12 in 10.0 mi West 4.6 mph - N/A   Clear
3:15 AM 41.5 °F 39.6 °F 26.2 °F 55% 30.11 in 10.0 mi West 3.5 mph - N/A   Clear
3:35 AM 39.7 °F 37.6 °F 25.7 °F 57% 30.10 in 10.0 mi West 3.5 mph - N/A   Clear
3:55 AM 39.9 °F 37.8 °F 25.7 °F 57% 30.10 in 10.0 mi WSW 3.5 mph - N/A   Clear
4:15 AM 38.5 °F - 26.1 °F 61% 30.10 in 10.0 mi Calm Calm - N/A   Clear
4:35 AM 38.3 °F - 26.1 °F 61% 30.10 in 10.0 mi Calm Calm - N/A   Clear
5:15 AM 37.8 °F - 26.4 °F 64% 30.10 in 10.0 mi Calm Calm - N/A   Clear
5:35 AM 36.7 °F 34.1 °F 26.4 °F 66% 30.10 in 10.0 mi West 3.5 mph - N/A   Clear
5:55 AM 36.9 °F 34.3 °F 27.1 °F 68% 30.10 in 10.0 mi West 3.5 mph - N/A   Clear
6:15 AM 37.4 °F 34.9 °F 26.4 °F 65% 30.10 in 10.0 mi West 3.5 mph - N/A   Clear
6:35 AM 37.0 °F 34.5 °F 27.0 °F 67% 30.10 in 10.0 mi West 3.5 mph - N/A   Clear
6:55 AM 37.6 °F - 27.0 °F 66% 30.10 in 10.0 mi Calm Calm - N/A   Clear
7:15 AM 38.5 °F - 26.6 °F 62% 30.10 in 10.0 mi Calm Calm - N/A   Clear
7:35 AM 38.5 °F - 27.1 °F 64% 30.10 in 10.0 mi Calm Calm - N/A   Clear
7:55 AM 39.2 °F - 28.4 °F 65% 30.11 in 10.0 mi Calm Calm - N/A   Clear
8:15 AM 40.6 °F - 28.8 °F 63% 30.11 in 10.0 mi Calm Calm - N/A   Clear
8:35 AM 43.2 °F - 29.1 °F 58% 30.11 in 10.0 mi Calm Calm - N/A   Clear
8:55 AM 43.7 °F - 30.6 °F 60% 30.10 in 10.0 mi Calm Calm - N/A   Clear
9:15 AM 45.5 °F - 30.7 °F 56% 30.10 in 10.0 mi Calm Calm - N/A   Clear
9:35 AM 48.6 °F - 31.8 °F 52% 30.10 in 10.0 mi Calm Calm - N/A   Clear
9:55 AM 52.2 °F - 31.3 °F 45% 30.10 in 10.0 mi Calm Calm - N/A   Clear
10:15 AM 53.8 °F - 32.4 °F 44% 30.09 in 10.0 mi Calm Calm - N/A   Clear
2:55 PM 77.7 °F - 27.7 °F 16% 30.00 in 10.0 mi West 5.8 mph - N/A   Clear
3:15 PM 79.2 °F - 28.2 °F 15% 29.98 in 10.0 mi NW 4.6 mph - N/A   Clear
3:35 PM 79.2 °F - 28.9 °F 16% 29.98 in 10.0 mi West 9.2 mph - N/A   Clear
3:55 PM 80.1 °F - 29.1 °F 16% 29.96 in 10.0 mi NW 8.1 mph 17.3 mph N/A   Clear
4:15 PM 80.4 °F - 28.2 °F 15% 29.97 in 10.0 mi West 13.8 mph 20.7 mph N/A   Clear
4:35 PM 78.6 °F - 27.3 °F 15% 29.96 in 10.0 mi WNW 6.9 mph - N/A   Clear
4:55 PM 79.2 °F - 28.2 °F 15% 29.95 in 10.0 mi West 9.2 mph - N/A   Clear
5:15 PM 77.9 °F - 26.4 °F 15% 29.96 in 10.0 mi NW 15.0 mph 21.9 mph N/A   Clear
5:35 PM 77.4 °F - 27.0 °F 16% 29.96 in 10.0 mi NNW 16.1 mph - N/A   Clear
5:55 PM 77.0 °F - 26.6 °F 16% 29.96 in 10.0 mi NW 11.5 mph 18.4 mph N/A   Clear
6:15 PM 74.7 °F - 28.0 °F 18% 29.96 in 10.0 mi NNW 6.9 mph - N/A   Clear
6:35 PM 73.4 °F - 28.2 °F 19% 29.96 in 10.0 mi NNW 8.1 mph - N/A   Clear
6:55 PM 72.1 °F - 29.3 °F 20% 29.97 in 10.0 mi North 5.8 mph - N/A   Clear
7:15 PM 71.4 °F - 28.6 °F 20% 29.97 in 10.0 mi North 5.8 mph - N/A   Clear
7:35 PM 69.8 °F - 29.8 °F 23% 29.97 in 10.0 mi North 5.8 mph - N/A   Clear
7:55 PM 68.4 °F - 29.8 °F 24% 29.97 in 10.0 mi NNE 3.5 mph - N/A   Clear
8:15 PM 65.5 °F - 30.0 °F 26% 29.97 in 10.0 mi Calm Calm - N/A   Clear
8:35 PM 64.6 °F - 29.8 °F 27% 29.97 in 10.0 mi Calm Calm - N/A   Clear
8:55 PM 64.0 °F - 29.5 °F 27% 29.98 in 10.0 mi Calm Calm - N/A   Clear
9:15 PM 62.1 °F - 29.5 °F 29% 29.98 in 10.0 mi Calm Calm - N/A   Clear
9:35 PM 60.6 °F - 29.7 °F 31% 29.98 in 10.0 mi Calm Calm - N/A   Clear
9:55 PM 57.7 °F - 29.7 °F 34% 29.99 in 10.0 mi Calm Calm - N/A   Clear
10:15 PM 57.9 °F - 29.7 °F 34% 29.99 in 10.0 mi Calm Calm - N/A   Clear
10:35 PM 54.7 °F - 30.2 °F 39% 29.99 in 10.0 mi West 3.5 mph - N/A   Clear
10:55 PM 54.1 °F - 30.4 °F 40% 29.99 in 10.0 mi Calm Calm - N/A   Clear
11:15 PM 54.1 °F - 31.1 °F 41% 29.99 in 10.0 mi West 3.5 mph - N/A   Clear
11:35 PM 54.1 °F - 32.0 °F 43% 30.00 in 10.0 mi WNW 3.5 mph - N/A   Clear
11:55 PM 54.0 °F - 32.0 °F 43% 30.00 in 10.0 mi West 5.8 mph - N/A   Clear